Weather History for Huntsville, AL

Change the Weather History Date:

Sunday, January 22, 2012

  Actual Average Record
Temperature  
Mean Temperature 53 °F 42 °F  
Max Temperature 64 °F 51 °F 78 °F (1933)
Min Temperature 42 °F 32 °F 5 °F (1985)
Degree Days  
Heating Degree Days 12 23  
Month to date heating degree days 414 527  
Since 1 July heating degree days 1520 1708  
Cooling Degree Days 0 0  
Month to date cooling degree days 0 0  
Year to date cooling degree days 0 0  
Growing Degree Days 2 (Base 50)    
Moisture  
Dew Point 51 °F    
Average Humidity 92    
Maximum Humidity 100    
Minimum Humidity 84    
Precipitation  
Precipitation 0.01 in 0.16 in 3.27 in (1906)
Month to date precipitation 4.89 3.50  
Year to date precipitation 4.89 3.50  
Snow  
Snow 0.00 in - - ()
Month to date snowfall T  
Since 1 July snowfall T  
Snow Depth 0.00 in    
Sea Level Pressure  
Sea Level Pressure 30.00 in    
Wind  
Wind Speed 12 mph (SE)    
Max Wind Speed 25 mph    
Max Gust Speed 32 mph    
Visibility 6 miles    
Events Rain    
T = Trace of Precipitation, MM = Missing Value Source: NWS Daily Summary

Daily Weather History Graph

Daily Weather History Graph

Search for Another Location

Airport:

Trip Planner

Search our weather history database for the weather conditions in past years. The results will help you decide how hot, cold, wet, or windy it might be!

Date:

Astronomy

Jan. 22, 2012 Rise Set
Actual Time 6:51 AM CST 5:06 PM CST
Civil Twilight 6:24 AM CST 5:33 PM CST
Nautical Twilight 5:53 AM CST 6:03 PM CST
Astronomical Twilight 5:23 AM CST 6:33 PM CST
Moon 6:07 AM CST (1/22) 4:46 PM CST (1/22)
Length of Visible Light 11h 08m
Length of Day
10h 14m
Waning Crescent, 0% of the Moon is Illuminated
Jan 22
Waning Crescent
Jan 23
New
Jan 30
First Quarter
Feb 7
Full
Feb 14
Last Quarter

Hourly Weather History & Observations

Time (CST) Temp. Windchill Dew Point Humidity Pressure Visibility Wind Dir Wind Speed Gust Speed Precip Events Conditions
12:53 AM 43.0 °F 40.3 °F 39.9 °F 89% 30.07 in 4.0 mi East 4.6 mph - N/A   Overcast
1:53 AM 44.1 °F 42.5 °F 42.1 °F 93% 30.07 in 4.0 mi ESE 3.5 mph - N/A   Overcast
2:12 AM 44.6 °F 43.1 °F 42.8 °F 93% 30.06 in 2.5 mi SE 3.5 mph - N/A   Overcast
2:45 AM 44.6 °F 41.4 °F 42.8 °F 93% 30.05 in 1.8 mi East 5.8 mph - N/A   Overcast
2:53 AM 44.1 °F 41.5 °F 42.1 °F 93% 30.05 in 1.5 mi East 4.6 mph - N/A   Overcast
3:53 AM 45.0 °F 42.6 °F 44.1 °F 97% 30.05 in 1.0 mi ESE 4.6 mph - N/A   Mist
4:01 AM 44.6 °F - 44.6 °F 100% 30.04 in 0.8 mi Calm Calm - N/A   Mist
4:10 AM 44.6 °F 43.1 °F 44.6 °F 100% 30.04 in 1.0 mi ESE 3.5 mph - N/A   Mist
4:22 AM 44.6 °F 42.2 °F 44.6 °F 100% 30.04 in 0.8 mi ESE 4.6 mph - N/A   Mist
4:38 AM 46.4 °F 44.3 °F 44.6 °F 93% 30.04 in 1.0 mi ESE 4.6 mph - N/A   Mist
4:53 AM 46.4 °F 45.2 °F 44.6 °F 93% 30.03 in 1.0 mi ESE 3.5 mph - N/A   Light Drizzle
5:53 AM 46.9 °F - 45.0 °F 93% 30.04 in 1.5 mi East 4.6 mph - 0.00 in   Overcast
6:15 AM 46.4 °F 42.9 °F 46.4 °F 100% 30.04 in 0.8 mi ESE 6.9 mph - N/A   Mist
6:53 AM 48.0 °F - 46.9 °F 96% 30.03 in 1.0 mi East 9.2 mph - N/A   Mist
7:53 AM 50.0 °F - 48.0 °F 93% 30.04 in 0.8 mi ESE 8.1 mph - N/A   Overcast
8:24 AM 51.8 °F - 48.2 °F 88% 30.04 in 2.0 mi ESE 8.1 mph - N/A   Overcast
8:53 AM 52.0 °F - 50.0 °F 93% 30.04 in 2.0 mi ESE 9.2 mph - N/A   Overcast
8:58 AM 53.6 °F - 50.0 °F 88% 30.04 in 5.0 mi ESE 11.5 mph - N/A   Overcast
9:53 AM 55.4 °F - 51.8 °F 88% 30.06 in 8.0 mi SE 8.1 mph - N/A   Mostly Cloudy
10:08 AM 55.4 °F - 51.8 °F 88% 30.07 in 10.0 mi SE 9.2 mph - N/A   Mostly Cloudy
10:53 AM 57.9 °F - 53.1 °F 84% 30.06 in 10.0 mi SE 10.4 mph - N/A   Overcast
11:53 AM 59.0 °F - 55.0 °F 87% 30.02 in 9.0 mi SE 13.8 mph - N/A   Overcast
12:53 PM 60.1 °F - 55.0 °F 83% 30.00 in 9.0 mi SSE 11.5 mph - N/A   Overcast
1:53 PM 60.1 °F - 55.9 °F 86% 29.99 in 8.0 mi SSE 16.1 mph - 0.01 in   Overcast
2:53 PM 61.0 °F - 55.9 °F 83% 29.98 in 7.0 mi SSE 17.3 mph - N/A   Overcast
3:19 PM 60.8 °F - 55.4 °F 82% 29.97 in 8.0 mi SSE 15.0 mph - N/A   Overcast
3:33 PM 60.8 °F - 57.2 °F 88% 29.96 in 9.0 mi SE 12.7 mph - N/A   Overcast
3:44 PM 60.8 °F - 55.4 °F 82% 29.97 in 9.0 mi SE 15.0 mph - N/A   Overcast
3:53 PM 61.0 °F - 55.9 °F 83% 29.96 in 10.0 mi SE 17.3 mph - N/A   Overcast
4:53 PM 61.0 °F - 55.9 °F 83% 29.96 in 10.0 mi SE 16.1 mph - N/A   Overcast
5:53 PM 61.0 °F - 57.0 °F 87% 29.96 in 10.0 mi SE 17.3 mph 24.2 mph 0.00 in Rain Light Rain
6:53 PM 61.0 °F - 57.0 °F 87% 29.96 in 10.0 mi SE 17.3 mph - 0.00 in   Overcast
7:53 PM 61.0 °F - 55.9 °F 83% 29.96 in 10.0 mi SSE 13.8 mph - N/A   Overcast
8:53 PM 61.0 °F - 55.9 °F 83% 29.94 in 10.0 mi SSE 15.0 mph 23.0 mph 0.00 in   Overcast
9:53 PM 61.0 °F - 57.0 °F 87% 29.91 in 10.0 mi SE 17.3 mph 26.5 mph 0.00 in   Overcast
10:28 PM 62.6 °F - 57.2 °F 82% 29.89 in 10.0 mi SSE 23.0 mph 31.1 mph N/A   Overcast
10:53 PM 62.6 °F - 57.2 °F 82% 29.86 in 10.0 mi SSE 23.0 mph 32.2 mph N/A   Overcast
11:53 PM 63.0 °F - 57.9 °F 84% 29.82 in 10.0 mi SSE 21.9 mph 31.1 mph N/A   Overcast